Hourly Weather Golaszewo

Today, 13 May, Thursday

Time Temperature Precipitation Wind Pressure Humidity
00:00 +14°C° 0 mm 5 mps 743 mmHg 92%
01:00 +13°C° 0 mm 5 mps 742 mmHg 93%
02:00 +13°C° 0 mm 5 mps 742 mmHg 93%
03:00 +12°C° 0 mm 5 mps 742 mmHg 93%
04:00 +10°C° 0 mm 5 mps 742 mmHg 93%
05:00 +12°C° 0 mm 5 mps 742 mmHg 89%
06:00 +13°C° 0 mm 5 mps 742 mmHg 84%
07:00 +13°C° 0 mm 5 mps 742 mmHg 80%
08:00 +14°C° 0 mm 5 mps 741 mmHg 75%
09:00 +16°C° 0 mm 5 mps 741 mmHg 69%
10:00 +17°C° 0 mm 5 mps 741 mmHg 63%
11:00 +19°C° 0 mm 5 mps 741 mmHg 60%
12:00 +19°C° 0 mm 4 mps 741 mmHg 57%
13:00 +20°C° 0 mm 4 mps 740 mmHg 53%
14:00 +20°C° 0 mm 4 mps 740 mmHg 53%
15:00 +20°C° 0 mm 3 mps 740 mmHg 53%
16:00 +20°C° 0 mm 3 mps 740 mmHg 53%
17:00 +18°C° 0 mm 3 mps 740 mmHg 60%
18:00 +17°C° 0 mm 2 mps 740 mmHg 66%
19:00 +16°C° 0 mm 2 mps 740 mmHg 73%
20:00 +15°C° 0 mm 1 mps 740 mmHg 76%
21:00 +14°C° 0 mm 1 mps 740 mmHg 80%
22:00 +12°C° 0 mm 1 mps 740 mmHg 84%
23:00 +12°C° 0 mm 1 mps 740 mmHg 86%

Tomorrow, 14 May, Friday

Time Temperature Precipitation Wind Pressure Humidity
00:00 +12°C° 0 mm 1 mps 740 mmHg 87%
01:00 +12°C° 0 mm 1 mps 740 mmHg 89%
02:00 +12°C° 0 mm 1 mps 740 mmHg 90%
03:00 +12°C° 0 mm 2 mps 740 mmHg 92%
04:00 +12°C° 0 mm 2 mps 740 mmHg 93%
05:00 +12°C° 0.1 mm 2 mps 740 mmHg 92%
06:00 +13°C° 0.1 mm 2 mps 740 mmHg 91%
07:00 +13°C° 0.1 mm 2 mps 741 mmHg 90%
08:00 +13°C° 0.1 mm 2 mps 741 mmHg 89%
09:00 +13°C° 0.1 mm 3 mps 741 mmHg 88%
10:00 +13°C° 0.1 mm 4 mps 741 mmHg 87%
11:00 +13°C° 0.1 mm 4 mps 742 mmHg 86%
12:00 +13°C° 0.1 mm 5 mps 742 mmHg 86%
13:00 +13°C° 0.1 mm 5 mps 742 mmHg 86%
14:00 +12°C° 0.1 mm 5 mps 742 mmHg 86%
15:00 +12°C° 0.1 mm 5 mps 743 mmHg 86%
16:00 +12°C° 0.1 mm 5 mps 743 mmHg 86%
17:00 +10°C° 0 mm 5 mps 743 mmHg 87%
18:00 +10°C° 0 mm 5 mps 743 mmHg 87%
19:00 +10°C° 0 mm 5 mps 744 mmHg 88%
20:00 +10°C° 0 mm 4 mps 744 mmHg 88%
21:00 +10°C° 0 mm 4 mps 744 mmHg 89%
22:00 +10°C° 0 mm 4 mps 744 mmHg 89%
23:00 +8°C° 0 mm 4 mps 745 mmHg 90%

Day after tomorrow, 15 May, Saturday

Time Temperature Precipitation Wind Pressure Humidity
00:00 +9°C° 0 mm 3 mps 745 mmHg 91%
01:00 +9°C° 0 mm 3 mps 745 mmHg 92%
02:00 +8°C° 0 mm 3 mps 745 mmHg 92%
03:00 +8°C° 0 mm 3 mps 745 mmHg 93%
04:00 +7°C° 0 mm 3 mps 745 mmHg 93%
05:00 +8°C° 0 mm 3 mps 746 mmHg 88%
06:00 +9°C° 0 mm 3 mps 746 mmHg 83%
07:00 +10°C° 0 mm 3 mps 746 mmHg 78%
08:00 +12°C° 0 mm 3 mps 746 mmHg 74%
09:00 +13°C° 0 mm 3 mps 746 mmHg 69%
10:00 +16°C° 0 mm 3 mps 746 mmHg 64%
11:00 +16°C° 0 mm 3 mps 746 mmHg 62%
12:00 +17°C° 0 mm 2 mps 746 mmHg 60%
13:00 +18°C° 0 mm 2 mps 746 mmHg 58%
14:00 +18°C° 0.1 mm 2 mps 745 mmHg 59%
15:00 +18°C° 0.1 mm 2 mps 745 mmHg 61%
16:00 +18°C° 0.1 mm 2 mps 745 mmHg 63%
17:00 +16°C° 0.2 mm 2 mps 745 mmHg 69%
18:00 +15°C° 0.2 mm 2 mps 745 mmHg 75%
19:00 +13°C° 0.2 mm 3 mps 745 mmHg 82%
20:00 +13°C° 0.5 mm 3 mps 744 mmHg 86%
21:00 +13°C° 0.5 mm 2 mps 744 mmHg 89%
22:00 +12°C° 0.5 mm 2 mps 744 mmHg 93%
23:00 +12°C° 0.5 mm 2 mps 744 mmHg 94%

16 May, Sunday

Time Temperature Precipitation Wind Pressure Humidity
00:00 +12°C° 0.5 mm 2 mps 744 mmHg 95%
01:00 +12°C° 0.5 mm 2 mps 744 mmHg 96%
02:00 +12°C° 0.6 mm 2 mps 744 mmHg 96%
03:00 +12°C° 0.6 mm 2 mps 744 mmHg 96%
04:00 +12°C° 0.6 mm 1 mps 744 mmHg 96%
05:00 +12°C° 0 mm 2 mps 744 mmHg 92%
06:00 +13°C° 0 mm 2 mps 744 mmHg 89%
07:00 +14°C° 0 mm 2 mps 744 mmHg 86%
08:00 +15°C° 0.1 mm 2 mps 744 mmHg 81%
09:00 +15°C° 0.1 mm 2 mps 744 mmHg 77%
10:00 +16°C° 0.1 mm 2 mps 744 mmHg 73%
11:00 +16°C° 0.8 mm 2 mps 744 mmHg 75%
12:00 +15°C° 0.8 mm 2 mps 744 mmHg 78%
13:00 +15°C° 0.8 mm 2 mps 744 mmHg 80%
14:00 +15°C° 0.7 mm 2 mps 744 mmHg 78%
15:00 +15°C° 0.7 mm 2 mps 743 mmHg 77%
16:00 +15°C° 0.7 mm 1 mps 743 mmHg 75%
17:00 +15°C° 0.2 mm 1 mps 743 mmHg 78%
18:00 +14°C° 0.2 mm 1 mps 743 mmHg 80%
19:00 +13°C° 0.2 mm 1 mps 743 mmHg 83%
20:00 +13°C° 0 mm 1 mps 743 mmHg 85%
21:00 +12°C° 0 mm 1 mps 743 mmHg 88%
22:00 +11°C° 0 mm 1 mps 743 mmHg 90%
23:00 +9°C° 0 mm 2 mps 743 mmHg 90%

17 May, Monday

Time Temperature Precipitation Wind Pressure Humidity
00:00 +9°C° 0 mm 2 mps 743 mmHg 91%
01:00 +9°C° 0 mm 2 mps 743 mmHg 92%
02:00 +8°C° 0 mm 2 mps 743 mmHg 92%
03:00 +8°C° 0 mm 2 mps 743 mmHg 92%
04:00 +8°C° 0 mm 2 mps 743 mmHg 92%
05:00 +9°C° 0 mm 2 mps 743 mmHg 88%
06:00 +12°C° 0 mm 2 mps 743 mmHg 85%
07:00 +13°C° 0 mm 2 mps 743 mmHg 81%
08:00 +14°C° 0.2 mm 2 mps 743 mmHg 76%
09:00 +16°C° 0.2 mm 3 mps 743 mmHg 70%
10:00 +17°C° 0.2 mm 3 mps 743 mmHg 65%
11:00 +17°C° 0.3 mm 3 mps 743 mmHg 63%
12:00 +18°C° 0.3 mm 3 mps 743 mmHg 62%
13:00 +18°C° 0.3 mm 4 mps 743 mmHg 60%
14:00 +18°C° 0.4 mm 4 mps 743 mmHg 62%
15:00 +18°C° 0.4 mm 4 mps 743 mmHg 64%
16:00 +17°C° 0.4 mm 4 mps 743 mmHg 65%
17:00 +16°C° 0.3 mm 3 mps 743 mmHg 72%
18:00 +14°C° 0.3 mm 3 mps 742 mmHg 79%
19:00 +14°C° 0.3 mm 2 mps 742 mmHg 86%
20:00 +13°C° 0 mm 2 mps 743 mmHg 88%
21:00 +12°C° 0 mm 2 mps 743 mmHg 90%
22:00 +10°C° 0 mm 3 mps 743 mmHg 91%
23:00 +9°C° 0 mm 3 mps 743 mmHg 92%

18 May, Tuesday

Time Temperature Precipitation Wind Pressure Humidity
00:00 +9°C° 0 mm 2 mps 743 mmHg 92%
01:00 +8°C° 0 mm 2 mps 743 mmHg 93%
02:00 +8°C° 0 mm 2 mps 743 mmHg 93%
03:00 +8°C° 0 mm 2 mps 743 mmHg 94%
04:00 +8°C° 0 mm 2 mps 743 mmHg 94%
05:00 +9°C° 0 mm 2 mps 743 mmHg 92%
06:00 +10°C° 0 mm 2 mps 744 mmHg 90%
07:00 +11°C° 0 mm 3 mps 744 mmHg 87%
08:00 +13°C° 0 mm 2 mps 744 mmHg 83%
09:00 +14°C° 0 mm 2 mps 744 mmHg 79%
10:00 +15°C° 0 mm 2 mps 744 mmHg 74%
11:00 +15°C° 0.4 mm 2 mps 744 mmHg 73%
12:00 +15°C° 0.4 mm 2 mps 744 mmHg 73%
13:00 +15°C° 0.4 mm 2 mps 744 mmHg 72%
14:00 +15°C° 0.7 mm 2 mps 744 mmHg 75%
15:00 +14°C° 0.7 mm 2 mps 745 mmHg 79%
16:00 +13°C° 0.7 mm 3 mps 745 mmHg 82%
17:00 +12°C° 0.5 mm 3 mps 745 mmHg 84%
18:00 +12°C° 0.5 mm 4 mps 745 mmHg 85%
19:00 +11°C° 0.5 mm 4 mps 745 mmHg 87%
20:00 +10°C° 0.2 mm 5 mps 745 mmHg 88%
21:00 +10°C° 0.2 mm 5 mps 745 mmHg 90%
22:00 +9°C° 0.2 mm 6 mps 746 mmHg 91%
23:00 +9°C° 0 mm 6 mps 746 mmHg 92%
Show more